Location: Shannon
(40.5500°S, 175.4167°E)
Time: 21:32:34
(UTC+00:00)

MOS 1-B Rocket - Pass Details

Date: 17 November 2025
Orbit: 891 x 1603 km, 99.0° (Epoch: 06 December)

Event Time Altitude Azimuth Distance (km) Brightness Sun altitude
Rises 15:07:35 0° 18° (NNE) 4,334 7.1 -16.6°
Reaches altitude 10° 15:10:27 10° 18° (NNE) 3,270 6.5 -16.2°
Maximum altitude 15:17:53 86° 104° (ESE) 1,145 4.4 -15.1°
Drops below altitude 10° 15:24:18 10° 193° (SSW) 2,828 6.8 -14.2°
Sets 15:26:37 0° 193° (SSW) 3,717 7.4 -13.9°
